Terminal Aerodrome Forecast
Issued by NWS

Home | Current Version | Previous Version | Text Only | Print | Product List | Glossary On
Versions: 1 2 3 4 5 6 7 8 9 10 11 12 13 14 15 16 17 18 19 20 21 22 23 24 25 26 27 28 29 30 31 32 33 34 35 36 37 38 39 40 41
000
FTUS46 KEKA 032113 AAA
TAFCEC
TAF AMD
KCEC 032113Z 0321/0418 22008KT P6SM BKN006
     FM032300 22008KT P6SM SCT008
      TEMPO 0323/0401 BKN008
     FM040100 21006KT P6SM BKN008
     FM040400 19004KT 6SM BR BKN008
     FM040800 18003KT 4SM BR OVC006
     FM041400 28005KT 6SM BR OVC008=

USA.gov is the U.S. government's official web portal to all federal, state and local government web resources and services.